Terminal Aerodrome Forecast
Issued by NWS

Home | Current Version | Previous Version | Text Only | Print | Product List | Glossary On
Versions: 1 2 3 4 5 6 7 8 9 10 11 12 13 14 15 16 17 18 19 20 21 22 23 24 25 26 27 28 29 30 31 32 33 34 35 36 37 38 39 40 41 42 43 44 45 46 47 48 49 50
000
FTUS45 KCYS 282322 CCA
TAFRWL
TAF COR
KRWL 282322Z 2823/2924 24018G28KT 2SM -SN BR OVC025
      TEMPO 2823/2902 1/2SM -SN FZFG VV014
     FM290200 26015KT 2SM -SN BR OVC015
      TEMPO 2902/2906 3/4SM -SN BR OVC009
     FM290800 04009KT 3/4SM -SN BR OVC009
     FM291600 05010KT 2SM -SN BR OVC015=

USA.gov is the U.S. government's official web portal to all federal, state and local government web resources and services.